Location: Stull Observatory
(42.2506°N, 77.7903°W)
Time: 14:56:34
(UTC-05:00)

Daily predictions for brighter satellites

Satellite Brightness Start Highest point End
(mag) Time Altitude Azimuth Time Altitude Azimuth Time Altitude Azimuth
FALCON 9 R/B 4.0 18:06:36 10° WSW 18:12:02 54° S 18:31:18 10° ESE
SL-8 R/B 4.1 18:13:11 10° W 18:17:55 59° NNW 18:22:39 10° ENE
COSMO-SKYMED 1 2.6 18:14:39 10° NNE 18:19:01 78° ESE 18:23:21 10° S
OAO 2 Rocket 4.4 18:15:20 10° WSW 18:19:53 35° S 18:24:22 10° ESE
H-2A R/B 3.5 18:17:16 10° SE 18:20:46 32° ENE 18:24:15 10° N
Tiangong 2 4.1 18:19:32 10° WSW 18:20:56 12° SW 18:22:20 10° S
FREGAT/IRIS 4.1 18:19:41 10° ESE 18:21:45 18° ENE 18:23:51 10° NNE
Cosmos 1603 4.3 18:19:39 10° N 18:24:48 35° ENE 18:29:53 10° ESE
Sich 1 Rocket 3.9 18:23:39 10° SSE 18:27:55 45° E 18:32:09 10° NNE
Cosmos 921 Rocket 3.2 18:25:32 10° N 18:29:59 55° ENE 18:34:21 10° SSE
Cosmos 44 Rocket 3.9 18:25:11 10° NW 18:30:11 64° WSW 18:35:16 10° SSE
COSMOS 2455 3.8 18:26:59 10° SSE 18:31:48 26° ESE 18:36:38 10° NE
Cosmos 1269 Rocket 4.2 18:26:54 10° S 18:32:00 53° ESE 18:37:08 10° NNE
Cosmos 1464 Rocket 3.9 18:27:18 10° N 18:33:25 70° E 18:39:33 10° SSE
Cosmos 1812 3.3 18:30:14 10° NNW 18:34:05 63° W 18:37:53 10° S
NOAA 12 4.1 18:29:56 10° SSE 18:35:15 88° ENE 18:40:37 10° NNW
Cosmos 2263 Rocket 3.5 18:31:51 10° SE 18:35:31 18° E 18:39:13 10° ENE
Cosmos 1674 Rocket 4.1 18:31:55 10° NNW 18:36:13 62° W 18:40:27 10° S
USA 32 4.2 18:31:56 10° SSE 18:36:57 49° E 18:41:59 10° NNE
Meteor 1-20 Rocket 4.3 18:31:30 10° S 18:37:13 79° E 18:43:03 10° NNE
Okean 2 Rocket 4.0 18:34:00 10° SE 18:37:38 26° E 18:41:20 10° NNE
SJ-6B 3.9 18:35:57 10° ESE 18:38:59 23° ENE 18:42:07 10° NNE
Iridium 4 Rocket 3.2 18:35:01 10° N 18:39:39 57° E 18:43:56 10° SSE
Meteor 1-4 Rocket 3.7 18:38:03 10° SE 18:40:48 22° E 18:43:36 10° NE
Cosmos 158 Rocket 4.4 18:36:44 10° SSW 18:41:33 63° WNW 18:46:25 10° NNE
ALOS 3.1 18:39:57 10° S 18:44:32 57° W 18:49:10 10° NNW
CZ-2D R/B 4.4 18:43:59 10° SE 18:47:10 24° ENE 18:50:22 10° NNE
Cosmos 1908 Rocket 3.7 18:43:23 10° S 18:47:51 82° W 18:52:20 10° N
YAOGAN 1 4.5 18:46:02 10° SSW 18:49:59 35° W 18:53:58 10° NNW
Cosmos 1602 3.9 18:48:49 10° S 18:52:35 49° E 18:56:21 10° NNE
Okean 1 3.2 18:50:15 10° N 18:54:15 85° E 18:58:13 10° S
Cosmos 1331 Rocket 4.4 18:49:57 10° N 18:55:01 44° ENE 19:00:03 10° SE
Alouette 2 Rocket 4.0 18:56:55 10° SSE 19:00:00 28° E 19:03:18 10° NNE
ATLAS CENTAUR R/B 2.5 18:57:16 10° NNW 19:00:54 28° NE 19:02:49 20° E
Cosmos 2227 4.2 19:01:32 10° SSW 19:07:15 80° ESE 19:12:57 10° NNE
EO 1 Del DPAF 3.8 19:03:59 10° N 19:07:47 60° WNW 19:11:32 10° SSW
Meteor 2-4 Rocket 3.9 19:03:52 10° N 19:09:28 48° ENE 19:14:51 10° SSE
ARGOS Delta rocket 4.0 19:06:18 10° NNE 19:10:51 44° E 19:15:10 10° SSE
Cosmos 2034 Rocket 4.2 19:05:17 10° N 19:11:41 82° W 19:18:01 10° S
Cosmos 1975 Rocket 3.1 19:09:29 10° N 19:13:57 86° W 19:18:25 10° S
Resurs 1-3 4.4 19:16:55 27° E 19:17:51 30° ENE 19:21:41 10° N
Cosmos 1437 Rocket 3.6 19:15:11 10° SSW 19:19:11 57° WNW 19:23:16 10° N
Cosmos 2251 Rocket 3.8 19:15:06 10° S 19:19:58 41° ESE 19:24:51 10° NE
Cosmos 1634 Rocket 4.1 19:15:10 10° N 19:21:09 49° ENE 19:27:05 10° SSE
Meteor 1-19 Rocket 4.1 19:16:37 10° N 19:22:10 88° E 19:27:45 10° S
GPS 2-05 Rocket1 4.3 19:20:52 10° SW 19:23:21 21° S 19:23:37 21° SSE
Cosmos 1816 Rocket 4.5 19:17:09 10° S 19:23:30 83° E 19:29:53 10° N
SeaSat 1 2.8 19:21:53 26° ESE 19:24:16 45° ENE 19:28:57 10° NNW
Cosmos 1536 3.0 19:23:01 10° SSE 19:26:53 46° E 19:30:48 10° NNE
Cosmos 1302 Rocket 4.2 19:22:17 10° N 19:27:19 46° ENE 19:29:32 29° ESE
Cosmos 1943 3.2 19:22:45 10° NNW 19:28:23 62° ENE 19:32:10 21° SE
Lacrosse 5 rocket 3.0 19:25:54 10° S 19:27:09 16° SSE 19:27:09 16° SSE
USA 215 3.5 19:27:29 22° ENE 19:31:30 48° SE 19:37:46 10° SSW
Cosmos 1184 Rocket 2.6 19:28:15 10° N 19:31:32 78° ENE 19:32:30 43° SSE
Meteor 1-11 Rocket 3.6 19:27:41 10° S 19:33:16 78° E 19:39:01 10° NNE
ERS-2 3.6 19:35:29 10° S 19:38:56 38° W 19:42:25 10° NNW
Resurs 01 Rocket 1.7 19:38:44 46° E 19:39:22 50° ENE 19:43:39 10° N
Gbstr 26 Del rocket 3.2 19:39:12 10° WSW 19:42:51 54° NNW 19:43:58 38° NNE
Cosmos 1536 Rocket 3.5 19:40:08 10° N 19:44:31 61° E 19:45:08 55° ESE
Envisat 3.1 19:45:53 10° S 19:50:56 77° WSW 19:56:03 10° NNW
Cosmos 1939 Rocket 3.1 19:59:33 59° N 19:59:33 59° N 20:02:57 10° N
CENTAUR R/B 4.3 19:56:35 10° W 20:01:58 28° NW 20:08:01 10° NNE
CZ-4C R/B 2.8 19:54:45 10° NW 20:01:59 80° NE 20:05:22 38° SE
OAO 2 Rocket 4.5 19:59:48 10° WSW 20:04:05 30° SSW 20:04:29 29° S
USA 267 3.9 20:03:53 34° NE 20:05:22 39° NNE 20:11:19 10° NW
Meteor 1-23 Rocket 4.2 20:00:32 10° N 20:06:23 89° W 20:09:44 27° S
USA 186 3.8 20:10:53 26° NW 20:10:53 26° NW 20:12:37 10° NNW
SJ-11-01 4.4 20:12:40 66° N 20:12:40 66° N 20:16:48 10° N
Thor Agena Rocket 4.4 20:09:20 10° N 20:14:11 47° WNW 20:18:59 10° SW
Cosmos 2180 Rocket 4.4 20:09:07 10° N 20:15:17 63° E 20:15:17 63° E
COSMOS 2455 3.5 20:11:27 10° SW 20:17:20 54° NW 20:23:16 10° NNE
Cosmos 2263 Rocket 2.5 20:13:21 10° SW 20:18:51 63° WNW 20:24:26 10° NNE
BREEZE-M DEB (TANK) 4.0 20:17:52 10° WSW 20:21:29 75° NNW 20:34:42 10° ENE
ATLAS CENTAUR R/B 3.1 20:36:02 10° NW 20:39:07 32° W 20:39:07 32° W
Spot 2 Rocket 4.1 20:40:28 51° W 20:40:29 51° W 20:45:27 10° NNW
H-2A R/B 4.2 20:47:17 18° N 20:47:17 18° N 20:48:42 10° N
Cosmos 2279 Rocket 4.3 20:37:33 10° NNW 20:43:44 65° W 20:44:58 53° SW
SeaSat 1 4.3 21:01:41 25° WSW 21:01:55 25° WSW 21:05:58 10° NW
USA 215 3.7 21:14:51 55° NW 21:14:51 55° NW 21:20:53 10° WSW
Resurs 01 Rocket 4.4 21:16:17 15° W 21:16:17 15° W 21:18:44 10° NW
